Location: Unspecified
(0.0000°N, 0.0000°E)
Time: 18:54:24
(UTC+00:00)

Explorer 11/Cluster Stage 4 - Pass Details

Date: 22 November 2019
Orbit: 467 x 1259 km, 28.8° (Epoch: 05 December)

Event Time Altitude Azimuth Distance (km) Brightness Sun altitude
Rises 02:43:58 0° 296° (WNW) 4,132 - -42.1°
Reaches altitude 10° 02:46:50 10° 294° (WNW) 3,206 - -41.4°
Maximum altitude 02:55:03 71° 211° (SSW) 1,307 - -39.6°
Exits shadow 02:57:10 52° 148° (SSE) 1,499 8.0 -39.1°
Drops below altitude 10° 03:02:55 10° 128° (SE) 3,074 10.3 -37.8°
Sets 03:05:38 0° 126° (SE) 3,954 11.1 -37.2°
